Location: ??????
(56.0120°N, 39.1740°E)
Time: 22:51:48
(UTC+00:00)

USA 234 - Pass Details

Date: 14 April 2026
Orbit: 1102 x 1106 km, 123.0° (Epoch: 4 January)

Event Time Altitude Azimuth Distance (km) Brightness Sun altitude
Rises 20:37:31 0° 90° (E) 3,922 6.0 -23.6°
Reaches altitude 10° 20:40:00 10° 90° (E) 2,964 5.4 -23.7°
Maximum altitude 20:46:33 83° 4° (N) 1,118 3.3 -23.9°
Drops below altitude 10° 20:53:08 10° 277° (W) 2,968 5.7 -24.0°
Sets 20:55:37 0° 277° (W) 3,927 6.3 -24.1°
